This is the latest recevied weather packets stored in our database for station/object WA3NOA-2. If no packets are shown the sender has not sent any weather packets the latest 10 day(s).
| Time | Temp. | Humidity | Pressure | Rain* | Wind** | Luminosity | Snow |
|---|---|---|---|---|---|---|---|
| 1777816988 | 10.56° C | 53% | 1008.1 hPa | 0 mm | - | - | - |
| 1777816927 | 10.56° C | 53% | 1008.2 hPa | 0 mm | - | - | - |
| 1777816627 | 10° C | 54% | 1008.1 hPa | 0 mm | - | - | - |
| 1777816327 | 9.44° C | 55% | 1008.2 hPa | 0 mm | - | - | - |
| 1777816088 | 9.44° C | 54% | 1008.2 hPa | 0 mm | - | - | - |
| 1777816027 | 9.44° C | 55% | 1008.2 hPa | 0 mm | - | - | - |
| 1777815727 | 10° C | 54% | 1008.1 hPa | 0 mm | - | - | - |
| 1777815426 | 9.44° C | 56% | 1008 hPa | 0 mm | - | - | - |
| 1777815188 | 9.44° C | 56% | 1008 hPa | 0 mm | - | - | - |
| 1777815126 | 9.44° C | 59% | 1008 hPa | 0 mm | - | - | - |
| 1777814826 | 8.89° C | 57% | 1008 hPa | 0 mm | - | - | - |
| 1777814526 | 9.44° C | 59% | 1007.9 hPa | 0 mm | - | - | - |
| 1777814288 | 9.44° C | 57% | 1008 hPa | 0 mm | - | - | - |
| 1777814227 | 9.44° C | 57% | 1007.9 hPa | 0 mm | - | - | - |
| 1777813926 | 9.44° C | 55% | 1007.9 hPa | 0 mm | - | - | - |
| 1777813626 | 9.44° C | 58% | 1007.8 hPa | 0 mm | - | - | - |
| 1777813388 | 9.44° C | 56% | 1007.9 hPa | 0 mm | - | - | - |
| 1777813326 | 9.44° C | 58% | 1007.9 hPa | 0 mm | - | - | - |
| 1777813026 | 9.44° C | 61% | 1007.9 hPa | 0 mm | - | - | - |
| 1777812726 | 8.33° C | 59% | 1007.8 hPa | 0 mm | - | - | - |
| 1777812488 | 8.89° C | 56% | 1007.7 hPa | 0 mm | - | - | - |
| 1777812426 | 8.89° C | 58% | 1007.9 hPa | 0 mm | - | - | - |
| 1777812126 | 8.89° C | 57% | 1007.8 hPa | 0 mm | - | - | - |
| 1777811826 | 8.89° C | 59% | 1007.7 hPa | 0 mm | - | - | - |
| 1777811589 | 8.89° C | 62% | 1007.8 hPa | 0 mm | - | - | - |
* Rain latest hour (hover to see other rain measurements)
** Current wind speed in m/s (hover to see current wind gust speed)